User: anonymous   Login
Location: Brno
(49.2000°N, 16.6330°E)
Time: 17:49:58
(UTC+02:00)
Language:

CARTOSAT-1 - Orbit

View from above orbital plane
View from above orbital plane
View from above satellite
View from above satellite

Ground track
Ground track

The orbit data is extracted from the following two-line orbital elements,

1 28649U 05017A   16120.20244491  .00000330  00000-0  46622-4 0  9998
2 28649  97.8999 194.0108 0001608   4.7180 355.4055 14.83427388594609
Epoch (UTC): 29 April 2016 04:51:31
Eccentricity: 0.0001608
inclination: 97.8999°
perigee height: 617 km
apogee height: 619 km
right ascension of ascending node: 194.0108°
argument of perigee: 4.7180°
revolutions per day: 14.83427388
mean anomaly at epoch: 355.4055°
orbit number at epoch: 59460

The dashed part of the orbit path shows where the satellite is in the earth's shadow,  

DLR